logo
Search for airport 
image banner adimage banner adimage banner ad
image banner ad

RCH16 - Far Eastern Memorial Hospital

Located in New Taipei, Taiwan, Province of China

ICAO - , IATA -

Data provided by Airmate  

General information

Coordinates: N24°59'50" E121°27'12"
Elevation is 277 feet MSL.
Magnetic variation is -5° East
View others Airports in Taipei (municipality)

Operational data

Special qualification required
Current time UTC:
Current local time:
Weather at : RCSS - Taipei/Songshan ( 13 km )
METAR: RCSS 152000Z 09008KT 9999 FEW020 SCT050 28/24 Q1009 NOSIG RMK A2982
TAF: TAF RCSS 151700Z 1518/1618 10005KT 9999 FEW015 TEMPO 1600/1604 29005KT TEMPO 1604/1610 13012KT FEW015 BKN032
View NOTAMs / SUP AIP / TFR affecting this airport [VIEW]
Communications frequencies: [VIEW]

Runways:

Airport contact information

Address: New Taipei Taiwan, Province of China

Satellite view of RCH16